Location: Catenanuova
(37.5690°N, 14.6870°E)
Time: 21:55:41
(UTC+02:00)

BlueWalker 3 - Pass Details

Date: 18 May 2025
Orbit: 460 x 472 km, 53.2° (Epoch: 16 June)

Event Time Altitude Azimuth Distance (km) Brightness Sun altitude
Rises 00:10:54 0° 314° (NW) 2,496 6.2 -31.8°
Reaches altitude 10° 00:13:03 10° 316° (NW) 1,620 5.1 -31.9°
Enters shadow 00:13:17 12° 316° (NW) 1,522 5.0 -31.9°
